Location: Isola Pescaroli
(45.0500°N, 10.1667°E)
Time: 05:17:27
(UTC+00:00)

Cosmos 1943 Rocket - Pass Details

Date: 03 March 2021
Orbit: 811 x 844 km, 71.0° (Epoch: 13 April)

Event Time Altitude Azimuth Distance (km) Brightness Sun altitude
Rises 20:44:04 0° 339° (NNW) 3,414 6.0 -37.1°
Reaches altitude 10° 20:46:46 10° 349° (N) 2,474 5.1 -37.5°
Enters shadow 20:48:16 17° 359° (N) 2,003 4.4 -37.7°
